GW1802 Weather Reports


time (UTC)temp
F
wind
direction
speed
knots
gust
knots
rain 1hr
in
rain 24hr
in
rain mn
in
humidity
%
barometer
mb
20260507051449 54 352 15.6 24.3 0.00 0.00 0.00 69 1009.7
20260507050945 55 352 15.6 24.3 0.00 0.00 0.00 66 1009.6
20260507050439 55 347 11.3 15.6 0.00 0.00 0.00 64 1009.6
20260507045937 56 24 7.8 11.3 0.00 0.00 0.00 63 1009.3
20260507045439 56 9 5.2 7.8 0.00 0.00 0.00 61 1008.9
20260507045202 56 32 4.3 7.8 0.00 0.00 0.00 61 1008.8
20260507044436 57 34 3.5 4.3 0.00 0.00 0.00 61 1008.7
20260507043939 57 352 1.7 4.3 0.00 0.00 0.00 60 1008.4
20260507043432 57 101 0.9 9.6 0.00 0.00 0.00 57 1007.9
20260507043201 57 42 5.2 10.4 0.00 0.00 0.00 57 1008.4
20260507042434 56 11 5.2 11.3 0.00 0.00 0.00 58 1008.6
20260507041938 56 9 8.7 11.3 0.00 0.00 0.00 59 1008.7
20260507041425 56 5 6.1 9.6 0.00 0.00 0.00 60 1008.9
20260507040925 57 352 5.2 10.4 0.00 0.00 0.00 62 1008.9
20260507040417 57 13 7.0 14.8 0.00 0.00 0.00 60 1008.9
20260507035916 58 11 7.8 14.8 0.00 0.00 0.00 55 1008.8
20260507035416 58 34 5.2 12.2 0.00 0.00 0.00 52 1008.8
20260507034916 58 13 7.8 12.2 0.00 0.00 0.00 48 1008.6
20260507034418 58 9 4.3 8.7 0.00 0.00 0.00 45 1008.6
20260507033915 59 22 3.5 8.7 0.00 0.00 0.00 45 1008.5
20260507033418 59 32 3.5 6.1 0.00 0.00 0.00 44 1008.2
20260507032915 60 47 0.9 5.2 0.00 0.00 0.00 43 1007.8
20260507032410 60 81 2.6 6.1 0.00 0.00 0.00 43 1007.7
20260507031905 60 98 2.6 6.1 0.00 0.00 0.00 42 1007.6
20260507031407 60 104 2.6 5.2 0.00 0.00 0.00 42 1007.5
20260507031354 61 63 2.6 5.2 0.00 0.00 0.00 41 1007.5
20260507030358 61 88 0.9 6.1 0.00 0.00 0.00 40 1007.6
20260507025857 61 96 2.6 6.1 0.00 0.00 0.00 40 1007.4
20260507025349 62 75 2.6 7.0 0.00 0.00 0.00 40 1007.4
20260507024856 62 12 1.7 7.8 0.00 0.00 0.00 39 1007.5
20260507024347 62 77 3.5 7.8 0.00 0.00 0.00 38 1007.5
20260507023842 62 46 0.9 7.8 0.00 0.00 0.00 37 1007.5
20260507023341 63 62 2.6 7.8 0.00 0.00 0.00 35 1007.5
20260507022840 63 32 1.7 5.2 0.00 0.00 0.00 34 1007.4
20260507022343 64 80 1.7 5.2 0.00 0.00 0.00 34 1007.1
20260507022100 64 102 1.7 8.7 0.00 0.00 0.00 33 1006.8
20260507021337 64 105 5.2 10.4 0.00 0.00 0.00 33 1006.7
20260507021056 65 137 6.1 10.4 0.00 0.00 0.00 32 1006.6
20260507020615 65 113 5.2 10.4 0.00 0.00 0.00 31 1006.6
20260507015844 65 128 7.0 10.4 0.00 0.00 0.00 30 1006.7
20260507015333 65 119 7.0 11.3 0.00 0.00 0.00 29 1006.6
20260507014828 66 93 7.8 13.9 0.00 0.00 0.00 28 1006.7
20260507014323 66 103 7.8 13.9 0.00 0.00 0.00 28 1006.8
20260507013820 66 108 7.8 12.2 0.00 0.00 0.00 28 1006.8
20260507013319 66 107 3.5 13.0 0.00 0.00 0.00 27 1006.9
20260507012818 66 80 6.1 13.0 0.00 0.00 0.00 27 1006.7
20260507012319 66 61 7.8 13.0 0.00 0.00 0.00 28 1006.7
20260507012034 66 132 1.7 7.0 0.00 0.00 0.00 30 1006.8
20260507011309 66 75 0.9 7.0 0.00 0.00 0.00 30 1006.8
20260507010811 66 70 0.9 5.2 0.00 0.00 0.00 29 1006.8
20260507010306 67 92 1.7 5.2 0.00 0.00 0.00 29 1006.8
20260507005800 67 49 3.5 9.6 0.00 0.00 0.00 29 1006.8
20260507005257 67 47 2.6 9.6 0.00 0.00 0.00 28 1006.7
20260507004756 67 122 1.7 9.6 0.00 0.00 0.00 29 1006.8
20260507004254 67 101 5.2 10.4 0.00 0.00 0.00 29 1006.8
20260507003748 67 110 3.5 10.4 0.00 0.00 0.00 28 1006.8
20260507003248 67 15 5.2 13.0 0.00 0.00 0.00 26 1006.9
20260507002751 68 44 6.1 13.0 0.00 0.00 0.00 25 1006.9
20260507002248 68 29 3.5 10.4 0.00 0.00 0.00 25 1006.7
20260507001738 68 5 3.5 10.4 0.00 0.00 0.00 25 1006.6
20260507001238 69 54 1.7 12.2 0.00 0.00 0.00 25 1006.6
20260507000733 69 55 5.2 12.2 0.00 0.00 0.00 24 1006.4
20260507000234 69 338 6.1 12.2 0.00 0.00 0.00 25 1006.3
20260506235727 70 83 6.1 11.3 0.00 0.00 0.00 25 1006.1
20260506235226 70 32 5.2 11.3 0.00 0.00 0.00 24 1005.8
20260506234726 70 30 6.1 12.2 0.00 0.00 0.00 24 1005.8
20260506234226 70 350 7.0 12.2 0.00 0.00 0.00 24 1005.7
20260506233718 70 33 7.0 11.3 0.00 0.00 0.00 25 1005.7
20260506233216 70 62 7.0 12.2 0.00 0.00 0.00 26 1005.8
20260506232940 70 27 7.0 12.2 0.00 0.00 0.00 25 1005.8
20260506232215 71 11 6.1 11.3 0.00 0.00 0.00 25 1005.8
20260506231710 71 5 3.5 11.3 0.00 0.00 0.00 24 1005.8
20260506231205 71 28 1.7 10.4 0.00 0.00 0.00 24 1005.8
20260506230925 71 53 5.2 11.3 0.00 0.00 0.00 24 1005.7
20260506230203 72 352 5.2 11.3 0.00 0.00 0.00 23 1005.6
20260506225703 72 352 2.6 9.6 0.00 0.00 0.00 24 1005.7
20260506225206 72 63 4.3 9.6 0.00 0.00 0.00 23 1005.8
20260506224704 72 86 3.5 10.4 0.00 0.00 0.00 25 1005.8
20260506224201 72 41 5.2 11.3 0.00 0.00 0.00 23 1005.8
20260506223700 72 17 7.0 13.0 0.00 0.00 0.00 25 1005.8
20260506223419 72 13 6.1 13.0 0.00 0.00 0.00 24 1005.9
20260506222649 73 40 8.7 13.9 0.00 0.00 0.00 24 1005.9
20260506222147 72 24 6.1 13.9 0.00 0.00 0.00 25 1005.8
20260506221918 72 28 7.0 14.8 0.00 0.00 0.00 24 1005.9
20260506221149 72 47 5.2 14.8 0.00 0.00 0.00 24 1006.1
20260506220644 72 13 8.7 16.5 0.00 0.00 0.00 24 1006.1
20260506220145 73 14 8.7 16.5 0.00 0.00 0.00 24 1006.1
20260506215916 73 30 6.1 13.0 0.00 0.00 0.00 23 1006.1
20260506215144 73 57 7.0 13.9 0.00 0.00 0.00 23 1006.2
20260506214641 74 17 8.7 13.9 0.00 0.00 0.00 24 1006.2
20260506214138 75 5 11.3 16.5 0.00 0.00 0.00 23 1006.2
20260506213641 75 28 6.1 16.5 0.00 0.00 0.00 25 1006.2
20260506213138 75 5 11.3 16.5 0.00 0.00 0.00 22 1006.3
20260506212635 76 44 7.8 14.8 0.00 0.00 0.00 24 1006.2
20260506212133 76 47 7.8 13.0 0.00 0.00 0.00 22 1006.2
20260506211856 76 22 7.8 13.9 0.00 0.00 0.00 23 1006.1
20260506211358 75 351 7.0 13.9 0.00 0.00 0.00 23 1006.2
20260506210625 75 15 7.8 13.9 0.00 0.00 0.00 24 1006.3
20260506210344 75 26 9.6 13.9 0.00 0.00 0.00 24 1006.3
20260506205621 75 35 8.7 13.9 0.00 0.00 0.00 26 1006.3
20260506205114 74 0 7.8 12.2 0.00 0.00 0.00 24 1006.3
20260506204828 73 5 7.8 13.9 0.00 0.00 0.00 26 1006.4
20260506204717 74 19 7.8 13.9 0.00 0.00 0.00 25 1006.4
20260506203613 73 11 4.3 13.0 0.00 0.00 0.00 25 1006.4
20260506203109 73 23 9.6 13.0 0.00 0.00 0.00 24 1006.4
20260506202609 74 20 6.1 13.0 0.00 0.00 0.00 23 1006.6
20260506202113 74 15 7.8 13.0 0.00 0.00 0.00 24 1006.5
20260506201610 74 86 7.0 13.0 0.00 0.00 0.00 22 1006.6
20260506201109 74 22 7.8 13.9 0.00 0.00 0.00 22 1006.6
20260506200605 74 13 8.7 13.9 0.00 0.00 0.00 23 1006.6
20260506200059 74 34 4.3 14.8 0.00 0.00 0.00 24 1006.7
20260506195559 75 5 8.7 14.8 0.00 0.00 0.00 23 1006.8
20260506195317 75 352 10.4 13.9 0.00 0.00 0.00 25 1006.7
20260506194555 75 352 7.8 11.3 0.00 0.00 0.00 26 1006.9
20260506194050 74 17 8.7 13.0 0.00 0.00 0.00 24 1006.9
20260506193548 74 10 9.6 13.0 0.00 0.00 0.00 23 1006.9
20260506193320 74 10 7.8 13.0 0.00 0.00 0.00 25 1006.9
20260506192545 73 0 2.6 13.0 0.00 0.00 0.00 26 1006.9
20260506192044 73 36 5.2 11.3 0.00 0.00 0.00 22 1007.1
20260506191536 73 20 6.1 11.3 0.00 0.00 0.00 24 1007.1
20260506191037 73 0 7.8 12.2 0.00 0.00 0.00 22 1007.1
20260506190539 74 349 5.2 12.2 0.00 0.00 0.00 23 1007.2
20260506190037 74 5 3.5 11.3 0.00 0.00 0.00 25 1007.3
20260506185535 73 17 5.2 10.4 0.00 0.00 0.00 24 1007.4
20260506185040 73 19 5.2 10.4 0.00 0.00 0.00 25 1007.4
20260506184530 73 0 7.8 15.6 0.00 0.00 0.00 22 1007.4
20260506184027 73 343 9.6 15.6 0.00 0.00 0.00 22 1007.4
20260506183527 73 352 6.1 10.4 0.00 0.00 0.00 24 1007.4
20260506183254 73 49 3.5 10.4 0.00 0.00 0.00 22 1007.5
20260506182523 73 21 3.5 10.4 0.00 0.00 0.00 23 1007.6
20260506182022 73 315 3.5 10.4 0.00 0.00 0.00 25 1007.6
20260506181521 73 352 7.0 10.4 0.00 0.00 0.00 25 1007.7
20260506181022 72 5 4.3 7.0 0.00 0.00 0.00 23 1007.8
20260506180512 72 66 0.9 7.0 0.00 0.00 0.00 23 1007.7
20260506180008 72 38 3.5 7.0 0.00 0.00 0.00 22 1007.8
20260506175505 72 115 3.5 8.7 0.00 0.00 0.00 22 1007.8
20260506174959 71 11 4.3 8.7 0.00 0.00 0.00 26 1007.8
20260506174729 71 82 1.7 7.0 0.00 0.00 0.00 24 1007.9
20260506173958 71 113 2.6 4.3 0.00 0.00 0.00 24 1008.2
20260506173714 71 217 0.9 7.0 0.00 0.00 0.00 22 1008.2
20260506172951 70 140 3.5 7.0 0.00 0.00 0.00 24 1008.3
20260506172449 70 115 4.3 7.0 0.00 0.00 0.00 23 1008.3
20260506171951 69 121 3.5 7.0 0.00 0.00 0.00 24 1008.2
20260506171454 69 90 0.9 3.5 0.00 0.00 0.00 24 1008.3
20260506170950 69 5 1.7 5.2 0.00 0.00 0.00 24 1008.4
20260506170445 69 49 1.7 5.2 0.00 0.00 0.00 23 1008.5
20260506165944 69 76 2.6 7.0 0.00 0.00 0.00 24 1008.5
20260506165659 69 304 2.6 7.0 0.00 0.00 0.00 27 1008.5
20260506164937 68 200 0.9 4.3 0.00 0.00 0.00 23 1008.6
20260506164436 67 259 1.7 7.0 0.00 0.00 0.00 26 1008.7
20260506164158 66 153 4.3 7.0 0.00 0.00 0.00 26 1008.7
20260506163701 66 167 0.9 4.3 0.00 0.00 0.00 26 1008.8
20260506163201 66 119 0.9 6.1 0.00 0.00 0.00 26 1008.8
20260506162426 65 189 3.5 6.1 0.00 0.00 0.00 27 1008.9
20260506161925 65 134 2.6 6.1 0.00 0.00 0.00 28 1009.0
20260506161429 64 245 2.6 6.1 0.00 0.00 0.00 30 1009.0
20260506161141 63 194 1.7 6.1 0.00 0.00 0.00 30 1009.2
20260506160645 62 119 1.7 4.3 0.00 0.00 0.00 30 1009.2
20260506155914 62 123 0.9 4.3 0.00 0.00 0.00 30 1009.3
20260506155413 61 246 1.7 6.1 0.00 0.00 0.00 33 1009.3
20260506154907 61 145 1.7 6.1 0.00 0.00 0.00 33 1009.4
20260506154402 60 172 0.0 4.3 0.00 0.00 0.00 34 1009.4
20260506153900 59 180 1.7 5.2 0.00 0.00 0.00 34 1009.5
20260506153357 58 208 1.7 5.2 0.00 0.00 0.00 35 1009.5
20260506152852 57 176 2.6 4.3 0.00 0.00 0.00 35 1009.6
20260506152352 56 185 0.0 3.5 0.00 0.00 0.00 36 1009.7
20260506152130 56 196 0.0 3.5 0.00 0.00 0.00 36 1009.8
20260506151351 55 171 1.7 3.5 0.00 0.00 0.00 38 1009.8
20260506150847 54 234 0.9 4.3 0.00 0.00 0.00 38 1009.8
20260506150621 53 187 1.7 4.3 0.00 0.00 0.00 39 1009.8
20260506145844 52 177 1.7 5.2 0.00 0.00 0.00 41 1009.9
20260506145343 51 182 1.7 5.2 0.00 0.00 0.00 42 1009.9
20260506144843 50 171 3.5 5.2 0.00 0.00 0.00 44 1010.0
20260506144340 50 244 1.7 4.3 0.00 0.00 0.00 46 1010.2
20260506143834 49 230 2.6 5.2 0.00 0.00 0.00 47 1010.2
20260506143600 47 201 3.5 5.2 0.00 0.00 0.00 48 1010.2
20260506142833 46 202 2.6 6.1 0.00 0.00 0.00 50 1010.3
20260506142334 45 201 4.3 6.1 0.00 0.00 0.00 51 1010.3
20260506141833 44 208 3.5 7.0 0.00 0.00 0.00 54 1010.3
20260506141328 42 203 5.2 7.0 0.00 0.00 0.00 56 1010.3
20260506140831 41 217 1.7 6.1 0.00 0.00 0.00 59 1010.5
20260506140558 40 160 2.6 6.1 0.00 0.00 0.00 60 1010.5
20260506135823 39 146 4.3 6.1 0.00 0.00 0.00 60 1010.5
20260506135324 39 171 4.3 7.8 0.00 0.00 0.00 60 1010.6
20260506134823 38 154 5.2 7.8 0.00 0.00 0.00 60 1010.7
20260506134323 38 176 5.2 7.8 0.00 0.00 0.00 61 1010.7
20260506133823 38 185 5.2 7.8 0.00 0.00 0.00 61 1010.7
20260506133321 37 192 6.1 8.7 0.00 0.00 0.00 62 1010.8
20260506132813 36 178 7.0 8.7 0.00 0.00 0.00 63 1010.9
20260506132312 35 188 6.1 7.8 0.00 0.00 0.00 64 1011.0
20260506131806 35 175 2.6 6.1 0.00 0.00 0.00 64 1011.0
20260506131304 35 162 4.3 7.8 0.00 0.00 0.00 64 1011.0
20260506130806 34 149 5.2 7.8 0.00 0.00 0.00 63 1010.9
20260506130302 34 173 5.2 7.0 0.00 0.00 0.00 64 1010.9
20260506130033 34 165 4.3 7.0 0.00 0.00 0.00 63 1010.9
20260506125258 34 150 3.5 7.0 0.00 0.00 0.00 62 1010.9
20260506124754 34 149 5.2 6.1 0.00 0.00 0.00 61 1011.0
20260506124515 34 138 4.3 6.1 0.00 0.00 0.00 61 1011.0
20260506123752 33 150 4.3 6.1 0.00 0.00 0.00 61 1011.2
20260506123244 33 148 3.5 6.1 0.00 0.00 0.00 60 1011.0
20260506122744 33 149 3.5 6.1 0.00 0.00 0.00 59 1010.9
20260506122239 34 190 3.5 7.0 0.00 0.00 0.00 59 1010.8
20260506121739 34 177 5.2 7.8 0.00 0.00 0.00 59 1010.8
20260506121236 34 188 5.2 8.7 0.00 0.00 0.00 59 1010.8
20260506120735 34 189 7.0 9.6 0.00 0.00 0.00 59 1011.2
20260506120229 34 182 7.8 11.3 0.00 0.00 0.00 59 1011.0
20260506115950 33 192 8.7 11.3 0.00 0.00 0.00 59 1011.0
20260506115226 33 193 9.6 12.2 0.00 0.00 0.00 60 1011.2
20260506114723 33 186 8.7 12.2 0.00 0.00 0.00 60 1011.2
20260506114219 33 185 7.8 12.2 0.00 0.00 0.00 61 1011.4
20260506113716 33 183 7.8 13.0 0.00 0.00 0.00 61 1011.6
20260506113218 33 171 8.7 13.0 0.00 0.00 0.00 62 1011.6
20260506112714 33 179 7.8 9.6 0.00 0.00 0.00 62 1011.6
20260506112212 33 155 6.1 9.6 0.00 0.00 0.00 61 1011.7
20260506111710 33 157 7.8 9.6 0.00 0.00 0.00 61 1011.9
20260506111206 33 144 7.0 8.7 0.00 0.00 0.00 60 1011.9
20260506110701 33 158 7.0 10.4 0.00 0.00 0.00 60 1011.9
20260506110157 33 150 7.0 10.4 0.00 0.00 0.00 61 1012.0
20260506105919 33 153 7.8 9.6 0.00 0.00 0.00 60 1012.1
20260506105155 33 158 7.0 9.6 0.00 0.00 0.00 60 1012.1
20260506104652 33 169 7.0 9.6 0.00 0.00 0.00 60 1012.3
20260506104154 33 162 7.8 11.3 0.00 0.00 0.00 60 1012.4
20260506103911 33 155 8.7 11.3 0.00 0.00 0.00 60 1012.4
20260506103415 32 151 9.6 12.2 0.00 0.00 0.00 61 1012.4
20260506102648 32 154 10.4 14.8 0.00 0.00 0.00 61 1012.5
20260506102148 32 157 9.6 14.8 0.00 0.00 0.00 62 1012.5
20260506101647 32 168 8.7 13.9 0.00 0.00 0.00 62 1012.6
20260506101146 32 167 10.4 13.9 0.00 0.00 0.00 63 1012.6
20260506100645 31 167 9.6 12.2 0.00 0.00 0.00 63 1012.7
20260506100146 31 158 9.6 12.2 0.00 0.00 0.00 64 1012.8
20260506095642 31 165 7.8 11.3 0.00 0.00 0.00 64 1012.9
20260506095141 31 175 7.0 9.6 0.00 0.00 0.00 64 1013.1
20260506094637 30 170 7.0 11.3 0.00 0.00 0.00 65 1013.4
20260506094133 30 155 7.8 13.0 0.00 0.00 0.00 65 1013.3
20260506093630 30 172 7.8 13.0 0.00 0.00 0.00 65 1013.4
20260506093127 30 173 6.1 10.4 0.00 0.00 0.00 65 1013.5
20260506092627 30 161 6.1 8.7 0.00 0.00 0.00 65 1013.7
20260506092124 30 157 7.0 9.6 0.00 0.00 0.00 65 1013.7
20260506091621 30 168 7.0 13.0 0.00 0.00 0.00 66 1013.7
20260506091117 29 155 8.7 13.0 0.00 0.00 0.00 67 1013.7
20260506090618 29 178 8.7 12.2 0.00 0.00 0.00 67 1013.8
20260506090340 29 161 7.0 9.6 0.00 0.00 0.00 67 1013.9
20260506085847 29 173 3.5 5.2 0.00 0.00 0.00 67 1014.0
20260506085111 29 173 3.5 5.2 0.00 0.00 0.00 67 1014.0
20260506084609 29 175 4.3 6.1 0.00 0.00 0.00 67 1014.0
20260506084110 29 172 3.5 6.1 0.00 0.00 0.00 67 1014.1
20260506083605 29 176 5.2 6.1 0.00 0.00 0.00 67 1014.3
20260506083107 29 182 5.2 7.8 0.00 0.00 0.00 67 1014.3
20260506082601 29 172 5.2 7.8 0.00 0.00 0.00 67 1014.4
20260506082102 29 174 6.1 7.8 0.00 0.00 0.00 67 1014.4
20260506081556 29 174 6.1 7.8 0.00 0.00 0.00 67 1014.4
20260506081313 29 175 5.2 7.0 0.00 0.00 0.00 67 1014.5
20260506080552 29 175 5.2 7.0 0.00 0.00 0.00 66 1014.5
20260506073300 30 177 3.5 5.2 0.00 0.00 0.00 63 1015.3
20260506072530 30 175 4.3 6.1 0.00 0.00 0.00 63 1015.3
20260506072244 30 163 4.3 6.1 0.00 0.00 0.00 63 1015.3
20260506071524 31 182 5.2 6.1 0.00 0.00 0.00 62 1015.5
20260506071024 31 173 4.3 6.1 0.00 0.00 0.00 62 1015.5
20260506070522 31 167 3.5 8.7 0.00 0.00 0.00 62 1015.6
20260506062504 32 170 5.2 7.8 0.00 0.00 0.00 60 1015.7
20260506062452 32 162 4.3 7.8 0.00 0.00 0.00 59 1015.7
20260506061457 32 173 3.5 5.2 0.00 0.00 0.00 59 1015.8
20260506060956 32 167 2.6 6.1 0.00 0.00 0.00 59 1015.8
20260506060452 32 153 4.3 6.1 0.00 0.00 0.00 58 1015.9
20260506060222 33 161 3.5 5.2 0.00 0.00 0.00 58 1016.0